Rifle, CO

5:39 AM MST on December 06, 2016 (GMT -0700)
Garfield County Regional

Weather History for KRIL - August, 2013

Change the Weather History Date:

Friday, August 16, 2013

  Actual Average Record
Temperature  
Mean Temperature 73 °F 71 °F  
Max Temperature 95 °F 88 °F 100 °F (1929)
Min Temperature 50 °F 53 °F 38 °F (1959)
Degree Days  
Heating Degree Days 0 0  
Month to date heating degree days 0 0  
Since 1 June heating degree days 13 60  
Since 1 July heating degree days 0 1  
Cooling Degree Days 8 6  
Month to date cooling degree days 79 113  
Year to date cooling degree days 576 456  
Since 1 June cooling degree days 569 449  
Growing Degree Days 22 (Base 50)    
Moisture  
Dew Point 28 °F    
Average Humidity 27    
Maximum Humidity 47    
Minimum Humidity 7    
Precipitation  
Precipitation 0.00 in 0.04 in 0.31 in (1957)
Month to date precipitation 0.06 0.73  
Year to date precipitation 4.82 8.30  
Sea Level Pressure  
Sea Level Pressure 30.00 in    
Wind  
Wind Speed 5 mph (SSE)    
Max Wind Speed 14 mph    
Max Gust Speed 16 mph    
Visibility 10 miles    
Events      
T = Trace of Precipitation, MM = Missing Value Source: NWS Daily Summary

Daily Weather History Graph

Daily Weather History Graph

Search for Another Location

Airport or City:

Trip Planner

Search our weather history database for the weather conditions in past years. The results will help you decide how hot, cold, wet, or windy it might be!

Date:

Astronomy

Aug. 16, 2013 Rise Set
Actual Time 6:24 AM MDT 8:04 PM MDT
Civil Twilight 5:55 AM MDT 8:33 PM MDT
Nautical Twilight 5:21 AM MDT 9:08 PM MDT
Astronomical Twilight 4:44 AM MDT 9:44 PM MDT
Moon 4:26 PM MDT (8/16) 1:30 AM MDT (8/16)
Length of Visible Light 14h 37m
Length of Day
13h 40m
Waxing Gibbous, 75% of the Moon is Illuminated
Aug 16
Waxing Gibbous
Aug 20
Full
Aug 28
Last Quarter
Sep 5
New
Sep 12
First Quarter

Hourly Weather History & Observations

Time (MDT) Temp. Dew Point Humidity Pressure Visibility Wind Dir Wind Speed Gust Speed Precip Events Conditions
12:53 AM 62.1 °F 30.0 °F 30% 30.00 in 10.0 mi Calm Calm - N/A   Clear
1:53 AM 59.0 °F 35.1 °F 41% 30.00 in 10.0 mi Calm Calm - N/A   Clear
2:53 AM 57.9 °F 28.9 °F 33% 30.00 in 10.0 mi Calm Calm - N/A   Clear
3:53 AM 55.9 °F 28.9 °F 36% 30.02 in 10.0 mi Calm Calm - N/A   Clear
4:53 AM 55.0 °F 28.0 °F 35% 30.03 in 10.0 mi ESE 4.6 mph - N/A   Clear
5:53 AM 52.0 °F 28.0 °F 40% 30.06 in 10.0 mi Calm Calm - N/A   Clear
6:53 AM 50.0 °F 30.0 °F 46% 30.10 in 10.0 mi East 4.6 mph - N/A   Clear
7:53 AM 55.9 °F 35.1 °F 45% 30.12 in 10.0 mi Calm Calm - N/A   Clear
8:53 AM 62.1 °F 32.0 °F 32% 30.12 in 10.0 mi Calm Calm - N/A   Clear
9:53 AM 70.0 °F 37.0 °F 30% 30.10 in 10.0 mi NNE 4.6 mph - N/A   Clear
10:53 AM 73.9 °F 33.1 °F 22% 30.08 in 10.0 mi Calm Calm - N/A   Clear
11:53 AM 82.9 °F 32.0 °F 16% 30.03 in 10.0 mi Variable 3.5 mph - N/A   Clear
12:53 PM 86.0 °F 28.0 °F 12% 30.00 in 10.0 mi Calm Calm - N/A   Clear
1:53 PM 91.0 °F 25.0 °F 9% 29.97 in 10.0 mi West 9.2 mph 16.1 mph N/A   Clear
2:53 PM 93.0 °F 21.9 °F 8% 29.95 in 10.0 mi West 9.2 mph - N/A   Clear
3:53 PM 93.9 °F 21.0 °F 7% 29.93 in 10.0 mi Variable 3.5 mph - N/A   Clear
4:53 PM 93.9 °F 19.9 °F 7% 29.91 in 10.0 mi Variable 3.5 mph - N/A   Clear
5:53 PM 93.0 °F 19.9 °F 7% 29.92 in 10.0 mi WNW 8.1 mph - N/A   Clear
6:53 PM 91.9 °F 24.1 °F 9% 29.92 in 10.0 mi West 11.5 mph - N/A   Clear
7:53 PM 86.0 °F 25.0 °F 11% 29.94 in 10.0 mi West 10.4 mph - N/A   Clear
8:53 PM 77.0 °F 28.0 °F 17% 29.96 in 10.0 mi ESE 10.4 mph - N/A   Clear
9:53 PM 73.9 °F 28.9 °F 19% 29.97 in 10.0 mi ESE 5.8 mph - N/A   Clear
10:53 PM 69.1 °F 28.0 °F 22% 29.98 in 10.0 mi SE 4.6 mph - N/A   Clear
11:53 PM 68.0 °F 30.0 °F 24% 29.97 in 10.0 mi SSE 10.4 mph - N/A   Clear